FW8576 Weather Reports


time (UTC)temp
C
wind
direction
speed
KPH
gust
KPH
rain 1hr
cm
rain 24hr
cm
rain mn
cm
humidity
%
barometer
mb
20260507015058 26 189 3.2 16.1 0.00 0.00 0.00 56 1015.7
20260507014555 26 202 11.3 17.7 0.00 0.00 0.00 56 1015.8
20260507014051 26 263 6.4 14.5 0.00 0.00 0.00 56 1016.0
20260507013548 26 242 6.4 19.3 0.00 0.00 0.00 57 1016.1
20260507013045 26 225 8.0 14.5 0.00 0.00 0.00 58 1016.1
20260507012542 26 216 9.7 12.9 0.00 0.00 0.00 57 1016.0
20260507012038 26 249 6.4 9.7 0.00 0.00 0.00 57 1015.7
20260507011536 26 194 4.8 6.4 0.00 0.00 0.00 57 1015.6
20260507011032 27 221 6.4 11.3 0.00 0.00 0.00 56 1015.5
20260507010526 27 227 4.8 11.3 0.00 0.00 0.00 57 1015.4
20260507010023 27 196 6.4 11.3 0.00 0.00 0.00 57 1015.2
20260507005521 27 214 8.0 11.3 0.00 0.00 0.00 56 1015.3
20260507005017 27 246 4.8 8.0 0.00 0.00 0.00 56 1015.2
20260507004514 27 175 4.8 9.7 0.00 0.00 0.00 56 1015.3
20260507004011 27 223 8.0 8.0 0.00 0.00 0.00 56 1015.0
20260507003506 27 199 0.0 6.4 0.00 0.00 0.00 56 1015.1
20260507003001 27 173 0.0 6.4 0.00 0.00 0.00 55 1015.3
20260507002459 27 229 8.0 11.3 0.00 0.00 0.00 55 1015.6
20260507001955 27 252 8.0 9.7 0.00 0.00 0.00 53 1015.8
20260507001451 27 240 4.8 11.3 0.00 0.00 0.00 53 1015.8
20260507000949 27 234 1.6 8.0 0.00 0.00 0.00 52 1015.9
20260507000445 28 219 12.9 14.5 0.00 0.00 0.00 52 1015.9
20260506235940 28 259 12.9 17.7 0.00 0.00 0.00 51 1015.9
20260506235438 28 188 8.0 17.7 0.00 0.00 0.00 51 1015.9
20260506234933 28 241 8.0 16.1 0.00 0.00 0.00 51 1015.7
20260506234431 28 240 11.3 16.1 0.00 0.00 0.00 51 1015.7
20260506233929 28 328 0.0 14.5 0.00 0.00 0.00 51 1015.9
20260506233425 28 245 6.4 14.5 0.00 0.00 0.00 50 1016.0
20260506232921 28 207 6.4 14.5 0.00 0.00 0.00 51 1016.0
20260506232418 28 205 9.7 16.1 0.00 0.00 0.00 50 1015.9
20260506231914 28 235 4.8 11.3 0.00 0.00 0.00 50 1016.0
20260506231412 28 262 12.9 16.1 0.00 0.00 0.00 50 1015.8
20260506230909 29 209 9.7 14.5 0.00 0.00 0.00 49 1015.9
20260506230405 29 242 6.4 35.4 0.00 0.00 0.00 49 1016.1
20260506225901 30 179 11.3 12.9 0.00 0.00 0.00 48 1015.8
20260506225359 30 224 12.9 25.7 0.00 0.00 0.00 48 1015.7
20260506224856 30 191 11.3 16.1 0.00 0.00 0.00 49 1015.8
20260506224353 30 226 8.0 9.7 0.00 0.00 0.00 48 1015.7
20260506223849 30 206 16.1 17.7 0.00 0.00 0.00 48 1015.4
20260506223344 30 192 9.7 11.3 0.00 0.00 0.00 49 1015.5
20260506222842 30 237 11.3 16.1 0.00 0.00 0.00 49 1015.6
20260506222338 30 229 19.3 27.4 0.00 0.00 0.00 49 1015.5
20260506221836 30 209 4.8 8.0 0.00 0.00 0.00 49 1015.5
20260506221333 30 238 12.9 16.1 0.00 0.00 0.00 49 1015.7
20260506220831 30 227 9.7 14.5 0.00 0.00 0.00 48 1015.6
20260506220326 30 235 9.7 16.1 0.00 0.00 0.00 49 1015.9
20260506215823 30 240 6.4 19.3 0.00 0.00 0.00 48 1015.9
20260506215318 30 233 6.4 19.3 0.00 0.00 0.00 49 1015.9
20260506214814 30 251 8.0 27.4 0.00 0.00 0.00 48 1015.7
20260506214311 30 185 4.8 27.4 0.00 0.00 0.00 48 1016.0
20260506213810 30 270 6.4 17.7 0.00 0.00 0.00 48 1016.1
20260506213306 30 230 6.4 25.7 0.00 0.00 0.00 48 1015.9
20260506212804 30 232 11.3 17.7 0.00 0.00 0.00 47 1015.9
20260506212259 30 226 11.3 17.7 0.00 0.00 0.00 47 1016.0
20260506211754 31 157 6.4 24.1 0.00 0.00 0.00 46 1015.9
20260506211251 31 245 3.2 20.9 0.00 0.00 0.00 47 1015.9
20260506210748 31 195 9.7 19.3 0.00 0.00 0.00 45 1016.1
20260506210245 31 254 12.9 16.1 0.00 0.00 0.00 46 1016.1
20260506205742 30 235 9.7 24.1 0.00 0.00 0.00 46 1016.2
20260506205238 30 192 1.6 12.9 0.00 0.00 0.00 46 1016.1
20260506204735 31 248 11.3 16.1 0.00 0.00 0.00 46 1016.3
20260506204232 30 319 9.7 22.5 0.00 0.00 0.00 45 1016.3
20260506203730 31 236 8.0 20.9 0.00 0.00 0.00 45 1016.2
20260506203227 30 268 8.0 24.1 0.00 0.00 0.00 46 1016.5
20260506202725 30 213 12.9 17.7 0.00 0.00 0.00 45 1016.4
20260506202220 31 244 11.3 17.7 0.00 0.00 0.00 46 1016.2
20260506201712 31 221 12.9 12.9 0.00 0.00 0.00 46 1016.4
20260506201209 31 199 16.1 20.9 0.00 0.00 0.00 45 1016.7
20260506200706 31 203 9.7 24.1 0.00 0.00 0.00 45 1016.4
20260506200203 31 239 9.7 25.7 0.00 0.00 0.00 45 1016.7
20260506195659 31 202 14.5 16.1 0.00 0.00 0.00 46 1016.7
20260506195155 30 228 6.4 20.9 0.00 0.00 0.00 46 1016.8
20260506194653 30 276 8.0 17.7 0.00 0.00 0.00 46 1017.1
20260506194149 31 218 16.1 20.9 0.00 0.00 0.00 44 1017.1
20260506193647 31 221 11.3 12.9 0.00 0.00 0.00 46 1017.3
20260506193143 31 247 9.7 22.5 0.00 0.00 0.00 45 1017.5
20260506192640 30 202 6.4 19.3 0.00 0.00 0.00 46 1017.6
20260506192136 30 261 12.9 14.5 0.00 0.00 0.00 46 1017.5
20260506191633 30 259 11.3 22.5 0.00 0.00 0.00 46 1017.8
20260506191129 30 244 9.7 19.3 0.00 0.00 0.00 46 1017.8
20260506190627 30 221 6.4 16.1 0.00 0.00 0.00 44 1017.7
20260506190124 30 245 6.4 11.3 0.00 0.00 0.00 45 1017.8
20260506185621 30 265 3.2 11.3 0.00 0.00 0.00 47 1017.7
20260506185117 30 248 11.3 20.9 0.00 0.00 0.00 44 1017.9
20260506184614 29 255 4.8 16.1 0.00 0.00 0.00 46 1017.9
20260506184111 28 252 14.5 17.7 0.00 0.00 0.00 46 1017.9
20260506183608 29 265 14.5 22.5 0.00 0.00 0.00 47 1018.0
20260506183104 29 235 4.8 24.1 0.00 0.00 0.00 47 1018.2
20260506182602 28 287 6.4 24.1 0.00 0.00 0.00 46 1017.9
20260506182059 29 40 3.2 17.7 0.00 0.00 0.00 46 1018.1
20260506181557 29 229 17.7 20.9 0.00 0.00 0.00 45 1018.1
20260506181053 30 222 11.3 14.5 0.00 0.00 0.00 48 1018.2
20260506180550 29 214 0.0 11.3 0.00 0.00 0.00 50 1018.4
20260506180047 28 246 6.4 20.9 0.00 0.00 0.00 49 1018.3
20260506175543 28 255 4.8 17.7 0.00 0.00 0.00 49 1018.5
20260506175039 28 262 8.0 16.1 0.00 0.00 0.00 51 1018.6
20260506174538 28 154 1.6 17.7 0.00 0.00 0.00 51 1018.6
20260506174033 28 275 0.0 17.7 0.00 0.00 0.00 53 1018.6
20260506173532 28 241 8.0 19.3 0.00 0.00 0.00 51 1018.9
20260506173028 28 191 9.7 14.5 0.00 0.00 0.00 52 1019.0
20260506172526 27 237 4.8 14.5 0.00 0.00 0.00 53 1019.1
20260506172022 27 229 8.0 20.9 0.00 0.00 0.00 53 1019.0
20260506171519 27 204 12.9 22.5 0.00 0.00 0.00 52 1019.3
20260506171017 26 229 14.5 22.5 0.00 0.00 0.00 57 1019.2
20260506170514 26 197 9.7 17.7 0.00 0.00 0.00 61 1019.3
20260506170006 26 237 11.3 19.3 0.00 0.00 0.00 61 1019.6
20260506165504 25 223 8.0 14.5 0.00 0.00 0.00 62 1019.7
20260506165000 26 228 6.4 14.5 0.00 0.00 0.00 62 1020.0
20260506164456 26 322 6.4 14.5 0.00 0.00 0.00 64 1019.8
20260506163954 26 203 9.7 14.5 0.00 0.00 0.00 63 1020.2
20260506163449 25 264 4.8 17.7 0.00 0.00 0.00 63 1020.4
20260506162944 25 268 11.3 12.9 0.00 0.00 0.00 63 1020.4
20260506162442 25 200 8.0 14.5 0.00 0.00 0.00 66 1020.4
20260506161939 25 227 4.8 14.5 0.00 0.00 0.00 68 1020.5
20260506161437 25 212 9.7 12.9 0.00 0.00 0.00 68 1020.4
20260506160935 24 221 3.2 8.0 0.00 0.00 0.00 70 1020.5
20260506160432 24 262 12.9 19.3 0.00 0.00 0.00 68 1020.4
20260506155929 24 251 4.8 12.9 0.00 0.00 0.00 69 1020.4
20260506155426 24 275 6.4 17.7 0.00 0.00 0.00 70 1020.5
20260506153548 23 226 9.7 14.5 0.00 0.00 0.00 70 1020.4
20260506153045 23 242 11.3 14.5 0.00 0.00 0.00 71 1020.3
20260506152542 23 255 11.3 22.5 0.00 0.00 0.00 72 1020.3
20260506152041 23 279 4.8 19.3 0.00 0.00 0.00 71 1020.2
20260506151539 23 231 8.0 22.5 0.00 0.00 0.00 71 1020.2
20260506151035 23 256 6.4 19.3 0.00 0.00 0.00 71 1019.9
20260506150531 23 273 6.4 17.7 0.00 0.00 0.00 71 1019.8
20260506150029 24 196 8.0 20.9 0.00 0.00 0.00 71 1019.6
20260506145525 23 267 6.4 14.5 0.00 0.00 0.00 73 1019.8
20260506145023 23 245 9.7 14.5 0.00 0.00 0.00 72 1019.7
20260506144519 23 252 8.0 19.3 0.00 0.00 0.00 74 1019.3
20260506144017 23 244 8.0 12.9 0.00 0.00 0.00 73 1019.7
20260506143514 23 225 12.9 17.7 0.00 0.00 0.00 74 1019.8
20260506143013 23 233 4.8 12.9 0.00 0.00 0.00 75 1019.7
20260506142510 23 236 6.4 8.0 0.00 0.00 0.00 76 1019.9
20260506142008 22 165 6.4 6.4 0.00 0.00 0.00 77 1019.9
20260506141505 22 225 9.7 14.5 0.00 0.00 0.00 77 1019.7
20260506141004 22 180 0.0 6.4 0.00 0.00 0.00 78 1019.8
20260506140501 21 161 3.2 6.4 0.00 0.00 0.00 79 1019.8
20260506135957 21 191 3.2 6.4 0.00 0.00 0.00 79 1019.9
20260506135455 21 246 1.6 8.0 0.00 0.00 0.00 79 1020.0
20260506134951 21 209 4.8 6.4 0.00 0.00 0.00 79 1020.0
20260506134446 21 286 0.0 8.0 0.00 0.00 0.00 80 1020.1
20260506133943 21 157 0.0 4.8 0.00 0.00 0.00 81 1019.9
20260506133441 20 162 4.8 4.8 0.00 0.00 0.00 82 1019.8
20260506132937 20 228 3.2 6.4 0.00 0.00 0.00 82 1019.8
20260506132434 20 82 0.0 1.6 0.00 0.00 0.00 82 1019.7
20260506131932 20 205 0.0 4.8 0.00 0.00 0.00 82 1019.5
20260506131428 20 234 6.4 6.4 0.00 0.00 0.00 82 1019.8
20260506130925 20 168 0.0 4.8 0.00 0.00 0.00 82 1019.7
20260506130421 19 160 4.8 8.0 0.00 0.00 0.00 82 1019.7
20260506125920 19 159 3.2 4.8 0.00 0.00 0.00 82 1019.5
20260506125418 19 201 0.0 4.8 0.00 0.00 0.00 83 1019.7
20260506124916 19 195 0.0 4.8 0.00 0.00 0.00 84 1019.3
20260506124413 18 209 3.2 4.8 0.00 0.00 0.00 84 1019.7
20260506123911 18 144 0.0 4.8 0.00 0.00 0.00 85 1019.5
20260506123409 18 188 4.8 8.0 0.00 0.00 0.00 85 1019.5
20260506122906 18 185 0.0 4.8 0.00 0.00 0.00 85 1019.5
20260506122402 18 196 0.0 4.8 0.00 0.00 0.00 86 1019.4
20260506121901 17 262 1.6 4.8 0.00 0.00 0.00 86 1019.5
20260506121357 17 187 3.2 4.8 0.00 0.00 0.00 86 1019.5
20260506120854 17 183 3.2 4.8 0.00 0.00 0.00 86 1019.4
20260506120352 17 199 3.2 6.4 0.00 0.00 0.00 85 1019.5
20260506115849 17 127 0.0 3.2 0.00 0.00 0.00 86 1019.2
20260506115347 17 176 3.2 8.0 0.00 0.00 0.00 85 1019.3
20260506114845 17 202 0.0 9.7 0.00 0.00 0.00 85 1019.4
20260506114342 17 186 0.0 4.8 0.00 0.00 0.00 86 1019.3
20260506113841 17 261 0.0 4.8 0.00 0.00 0.00 86 1019.2
20260506113338 17 151 1.6 11.3 0.00 0.00 0.00 87 1019.0
20260506112835 17 210 3.2 8.0 0.00 0.00 0.00 87 1018.8
20260506112332 16 180 0.0 6.4 0.00 0.00 0.00 88 1018.7
20260506111829 16 200 6.4 8.0 0.00 0.00 0.00 88 1018.5
20260506111328 16 243 1.6 6.4 0.00 0.00 0.00 88 1018.7
20260506110825 16 225 3.2 8.0 0.00 0.00 0.00 88 1018.5
20260506110321 16 276 1.6 4.8 0.00 0.00 0.00 88 1018.5
20260506105819 16 206 3.2 14.5 0.00 0.00 0.00 88 1018.4
20260506105315 16 216 4.8 8.0 0.00 0.00 0.00 88 1018.1
20260506104812 16 219 3.2 9.7 0.00 0.00 0.00 88 1018.0
20260506104310 16 216 4.8 11.3 0.00 0.00 0.00 87 1018.2
20260506103808 16 212 3.2 9.7 0.00 0.00 0.00 88 1017.9
20260506103305 16 206 1.6 4.8 0.00 0.00 0.00 87 1018.0
20260506102802 16 278 0.0 8.0 0.00 0.00 0.00 87 1017.9
20260506102300 16 111 1.6 8.0 0.00 0.00 0.00 87 1017.8
20260506101757 16 243 0.0 8.0 0.00 0.00 0.00 87 1018.1
20260506101253 16 203 3.2 4.8 0.00 0.00 0.00 87 1017.8
20260506100751 16 175 3.2 8.0 0.00 0.00 0.00 87 1018.1
20260506100249 16 203 4.8 6.4 0.00 0.00 0.00 87 1018.0
20260506095747 16 232 3.2 6.4 0.00 0.00 0.00 87 1017.9
20260506095244 16 188 3.2 6.4 0.00 0.00 0.00 87 1018.1
20260506094740 16 180 0.0 8.0 0.00 0.00 0.00 87 1018.0
20260506094239 16 233 3.2 4.8 0.00 0.00 0.00 86 1017.7
20260506093737 16 191 4.8 6.4 0.00 0.00 0.00 86 1018.1
20260506093234 16 180 1.6 4.8 0.00 0.00 0.00 86 1018.2
20260506092732 17 203 6.4 8.0 0.00 0.00 0.00 86 1018.4
20260506092230 17 192 4.8 8.0 0.00 0.00 0.00 85 1018.3
20260506091726 17 203 3.2 8.0 0.00 0.00 0.00 85 1018.3
20260506091224 17 218 8.0 11.3 0.00 0.00 0.00 85 1018.3
20260506090722 17 12 1.6 16.1 0.00 0.00 0.00 84 1018.5
20260506090218 17 243 0.0 9.7 0.00 0.00 0.00 84 1018.7
20260506085715 17 208 3.2 11.3 0.00 0.00 0.00 84 1018.4
20260506085211 17 213 4.8 11.3 0.00 0.00 0.00 84 1018.6
20260506084708 17 255 0.0 9.7 0.00 0.00 0.00 84 1018.5
20260506084204 17 189 3.2 9.7 0.00 0.00 0.00 84 1018.5
20260506083701 17 181 11.3 11.3 0.00 0.00 0.00 84 1018.7
20260506083159 17 207 8.0 8.0 0.00 0.00 0.00 84 1018.7
20260506082657 17 248 3.2 6.4 0.00 0.00 0.00 83 1018.8
20260506082156 17 221 3.2 9.7 0.00 0.00 0.00 83 1018.5
20260506081655 17 180 4.8 6.4 0.00 0.00 0.00 84 1018.5
20260506081152 17 157 0.0 6.4 0.00 0.00 0.00 84 1018.6
20260506080650 17 227 4.8 8.0 0.00 0.00 0.00 84 1018.7
20260506080146 17 180 0.0 6.4 0.00 0.00 0.00 83 1018.5
20260506073130 17 161 6.4 11.3 0.00 0.00 0.00 83 1018.8
20260506072627 17 106 0.0 4.8 0.00 0.00 0.00 83 1018.6
20260506072125 17 191 0.0 6.4 0.00 0.00 0.00 83 1018.7
20260506071622 17 185 0.0 4.8 0.00 0.00 0.00 82 1018.9
20260506071120 17 173 0.0 6.4 0.00 0.00 0.00 82 1018.8
20260506070616 17 112 3.2 6.4 0.00 0.00 0.00 82 1018.8
20260506070114 17 147 0.0 6.4 0.00 0.00 0.00 82 1018.7
20260506062050 17 147 0.0 8.0 0.00 0.00 0.00 81 1018.4
20260506061546 17 162 6.4 6.4 0.00 0.00 0.00 81 1018.8
20260506061044 17 82 1.6 4.8 0.00 0.00 0.00 80 1018.8
20260506060543 18 194 4.8 8.0 0.00 0.00 0.00 80 1018.8
20260506051011 18 198 4.8 9.7 0.00 0.00 0.00 76 1019.5
20260506050509 18 132 0.0 11.3 0.00 0.00 0.00 76 1019.3
20260506044959 19 196 3.2 9.7 0.00 0.00 0.00 75 1019.1
20260506044458 19 175 0.0 6.4 0.00 0.00 0.00 75 1019.4
20260506043954 19 158 6.4 14.5 0.00 0.00 0.00 74 1019.4
20260506043451 19 191 0.0 16.1 0.00 0.00 0.00 74 1019.1
20260506042949 19 188 4.8 12.9 0.00 0.00 0.00 74 1019.3
20260506042448 19 190 6.4 11.3 0.00 0.00 0.00 74 1019.4
20260506041946 20 229 6.4 14.5 0.00 0.00 0.00 73 1019.3
20260506041444 19 180 4.8 14.5 0.00 0.00 0.00 73 1019.3
20260506040941 20 209 1.6 12.9 0.00 0.00 0.00 73 1019.1
20260506040438 20 209 8.0 11.3 0.00 0.00 0.00 73 1019.5
20260506035934 20 7 3.2 6.4 0.00 0.00 0.00 73 1019.4
20260506035432 20 185 4.8 9.7 0.00 0.00 0.00 73 1019.0
20260506034928 20 215 1.6 11.3 0.00 0.00 0.00 73 1019.0
20260506034425 20 90 3.2 11.3 0.00 0.00 0.00 72 1019.1
20260506033922 20 197 6.4 8.0 0.00 0.00 0.00 72 1019.2
20260506033420 20 228 3.2 11.3 0.00 0.00 0.00 72 1019.2
20260506032916 20 154 1.6 8.0 0.00 0.00 0.00 72 1019.2
20260506032414 20 212 4.8 8.0 0.00 0.00 0.00 71 1019.3
20260506031910 20 132 3.2 12.9 0.00 0.00 0.00 71 1019.3
20260506031408 20 135 3.2 11.3 0.00 0.00 0.00 71 1019.2
20260506030905 20 166 0.0 9.7 0.00 0.00 0.00 71 1019.4
20260506030403 20 156 3.2 11.3 0.00 0.00 0.00 70 1019.1
20260506025859 21 203 6.4 14.5 0.00 0.00 0.00 69 1018.9
20260506025356 21 199 0.0 11.3 0.00 0.00 0.00 69 1018.7
20260506024853 21 120 4.8 12.9 0.00 0.00 0.00 68 1019.0
20260506024350 21 171 4.8 11.3 0.00 0.00 0.00 68 1019.0
20260506023846 21 160 6.4 9.7 0.00 0.00 0.00 67 1018.8
20260506023343 21 222 4.8 8.0 0.00 0.00 0.00 67 1018.8
20260506022840 21 133 4.8 16.1 0.00 0.00 0.00 66 1018.8
20260506022337 21 130 4.8 14.5 0.00 0.00 0.00 65 1018.6
20260506021835 21 177 11.3 19.3 0.00 0.00 0.00 65 1018.6
20260506021332 21 155 4.8 14.5 0.00 0.00 0.00 64 1018.4
20260506020828 21 264 1.6 9.7 0.00 0.00 0.00 63 1018.2
20260506020327 21 182 6.4 9.7 0.00 0.00 0.00 64 1018.3
20260506015824 20 195 0.0 11.3 0.00 0.00 0.00 68 1018.2